Zurück zum Katalog

STARLINK-37498

AktivKommunikationVLEO
NORAD 69459·PAYLOAD·🇺🇸 United States

Gestartet Jun 8, 2026 von Cape Canaveral Space Force Station

Loading…

Nächste Überflüge (nächste 24 Stunden)

TLE

AktuellSource: CelesTrak SupGP

Epoche: Sep 14, 2026, 23:34 UTC

1 69459C 26127S   26257.98243056 -.00036035  00000+0 -10643-2 0  2571
2 69459  53.1583 191.2116 0001451  94.5571 103.5257 15.34417900    11

Verfolge STARLINK-37498 in Echtzeit mit AllMySat

Download on the App Store